Date,TemperatureHighF,TemperatureAvgF,TemperatureLowF,DewpointHighF,DewpointAvgF,DewpointLowF,HumidityHigh,HumidityAvg,HumidityLow,PressureMaxIn,PressureMinIn,WindSpeedMaxMPH,WindSpeedAvgMPH,GustSpeedMaxMPH,PrecipitationSumIn
2013-3-1,42,33,23,30,26,21,94,75,56,29.97,29.91,4,0,8,0.00
2013-3-2,41,34,27,33,26,18,94,72,43,29.98,29.88,5,1,9,0.05
2013-3-3,39,30,22,20,17,12,78,60,38,30.03,29.94,7,1,11,0.00
2013-3-4,54,34,16,27,19,14,91,60,23,30.17,30.02,8,1,9,0.00
2013-3-5,48,40,30,47,36,25,97,83,62,30.12,29.72,9,1,16,0.67
2013-3-6,41,34,28,27,23,17,88,66,48,30.17,29.75,7,2,14,0.00
2013-3-7,52,35,22,31,26,21,95,74,43,30.32,30.16,4,1,8,0.00
2013-3-8,57,38,21,29,21,13,95,60,22,30.36,30.26,7,1,14,0.00
2013-3-9,63,43,23,33,26,21,92,58,28,30.40,30.29,6,1,11,0.00
2013-3-10,65,48,34,36,33,29,87,60,28,30.36,30.23,6,1,9,0.00
2013-3-11,53,50,42,52,47,36,98,90,75,30.25,29.92,5,1,13,1.17
2013-3-12,57,48,34,51,42,32,99,82,51,30.11,29.84,5,1,10,0.41
2013-3-13,50,37,27,33,24,17,96,65,31,30.20,30.08,9,1,17,0.00
2013-3-14,52,36,26,23,17,13,74,49,26,30.33,30.20,7,2,10,0.00
2013-3-15,68,47,24,40,30,21,89,57,26,30.25,30.02,13,2,17,0.00
2013-3-16,76,63,45,45,42,39,83,49,28,30.02,29.88,11,2,19,0.00
2013-3-17,72,59,45,48,45,41,87,63,39,30.09,29.97,8,1,14,0.00
2013-3-18,55,44,40,46,42,39,98,92,72,30.14,29.93,4,0,5,0.69
2013-3-19,63,47,36,43,30,16,99,61,17,30.15,29.93,7,1,12,0.01
2013-3-20,55,42,31,29,18,9,80,43,16,30.17,29.89,8,1,22,0.00
2013-3-21,45,33,24,31,15,11,91,50,29,29.99,29.82,6,1,9,0.00
2013-3-22,46,34,22,24,20,16,81,57,35,30.08,30.00,8,1,13,0.00
2013-3-23,60,45,36,45,38,24,94,77,52,30.08,29.93,4,0,7,0.06
2013-3-24,47,43,40,44,41,39,97,93,79,29.99,29.59,5,1,10,1.10
2013-3-25,40,35,30,39,24,19,96,64,46,29.95,29.60,10,3,19,0.00
2013-3-26,43,34,26,23,21,19,83,62,42,30.23,29.94,6,1,11,0.00
2013-3-27,49,37,24,27,22,19,84,58,33,30.31,30.21,7,1,11,0.00
2013-3-28,58,36,22,28,21,9,94,62,15,30.36,30.23,7,1,14,0.00
2013-3-29,56,39,22,40,28,20,91,69,29,30.41,30.30,6,1,17,0.01
2013-3-30,64,50,39,44,40,37,97,73,40,30.30,30.14,7,1,9,0.04
2013-3-31,63,54,46,54,50,44,98,87,56,30.13,29.94,10,1,10,0.36